STAR ONE D2

Last updated on Sat Jun 21 2025 00:02:47 GMT+0000 (Coordinated Universal Time)

1 49055U 21069A 25171.48870529 -.00000253 00000+0 00000+0 0 9999 2 49055 0.0165 350.1090 0002019 121.1356 263.5346 1.00268446 14304
UTC large
Height (km)
Speed (km/s)
/
Latitude / Longitude
Inclination (degrees)
Orbital Period (minutes)
Azimuth
Elevation
Range (km)
Doppler Factor

Next 0 passes for location: London (51.5072 / 0.1276)

Sorry there are no passes over London.